カタログに戻る

CRRES DEB

CANISTER

運用中GTO
NORAD 21594·DEBRIS·🇺🇸 United States

打ち上げ Jul 25, 1990 から Cape Canaveral Space Force Station

Loading…

TLE

経年Source: Space-Track

元期: Sep 14, 2026, 11:40 UTC

1 21594U 90065K   26257.48657660  .00000002  00000-0  90955-3 0  9998
2 21594  17.3389  23.4727 7053883 209.6458  78.5074  2.44879539309810

AllMySatでCRRES DEBをリアルタイム追跡

Download on the App Store